This demonstration page uses our WeatherBlox Daily Observations layout. Learn more.

Left ArrowRight Arrow

Hourly Observations for November 21, 2021

Temp ( °F °C ) Dew Point ( °F °C ) Humidity (%) Winds ( mph kmh ) Pressure ( in mb ) Visibility ( mi km ) Precip ( " mm )
6:30 am 06:30 Cloudy 41 5 39 4 93 93 SSE 7 11 30.17 1022 7 11 N/A
6:45 am 06:45 Cloudy 41 5 39 4 93 93 SSE 7 11 30.17 1022 7 11 N/A
7:45 am 07:45 Cloudy 41 5 39 4 93 93 S 7 11 30.17 1022 10 16 N/A
8:45 am 08:45 Cloudy 41 5 39 4 93 93 S 8 13 30.15 1021 7 11 N/A
9:45 am 09:45 Cloudy 41 5 39 4 93 93 S 8 13 30.14 1021 7 11 N/A
10:45 am 10:45 Cloudy with Haze 41 5 39 4 93 93 SSW 7 11 30.14 1021 4 6 N/A
11:45 am 11:45 Cloudy 43 6 41 5 93 93 S 9 15 30.11 1020 10 16 N/A
12:45 pm 12:45 Cloudy 45 7 41 5 87 87 SW 6 9 30.09 1019 10 16 N/A
1:45 pm 13:45 Cloudy 45 7 43 6 93 93 undefined N/A 30.06 1018 7 11 N/A
2:45 pm 14:45 Cloudy with Mist and Fog 45 7 43 6 93 93 SW 6 9 30.04 1017 5 8 N/A
3:45 pm 15:45 Cloudy with Mist and Fog 46 8 45 7 93 93 WSW 6 9 30.03 1017 5 8 N/A
4:10 pm 16:10 Cloudy 46 8 45 7 93 93 WSW 6 9 30.04 1017 7 11 N/A
4:40 pm 16:40 Mostly Cloudy 45 7 43 6 93 93 WSW 6 9 30.05 1017 7 11 N/A
4:45 pm 16:45 Partly Cloudy 45 7 43 6 93 93 Calm 30.05 1017 7 11 N/A
5:25 pm 17:25 Mostly Cloudy 43 6 41 5 93 93 Calm 30.07 1018 7 11 N/A
5:45 pm 17:45 Cloudy 41 5 39 4 93 93 Calm 30.07 1018 7 11 N/A
6:55 pm 18:55 Clear with Mist and Fog 39 4 37 3 93 93 Calm 30.08 1019 5 8 N/A
7:45 pm 19:45 Mostly Cloudy with Mist and Fog 37 3 37 3 100 100 Calm 30.09 1019 2 3 N/A
8:15 pm 20:15 Mostly Cloudy with Fog 37 3 37 3 100 100 Calm 30.09 1019 0 0 N/A
8:45 pm 20:45 Mostly Cloudy with Fog 37 3 36 2 93 93 SSW 6 9 30.09 1019 0 0 N/A
9:45 pm 21:45 Cloudy with Mist and Fog 37 3 36 2 93 93 SW 6 9 30.09 1019 1 1 N/A

Powered by AerisWeather